CFG1CD EDDF-EDDB

Flight info

Callsign CFG1CD
Flight time 0h 43m
Altitude FL310
Route TOBAK8M/25C TOBAK N858 SWALM T201 TAMEB T278 KLF
Aircraft A20N/M-SDE2E3FGHIRWXY/LB1

Departure

Time 2026-05-06 18:11
Airport Frankfurt Main Airport (EDDF)

Arrival

Time 2026-05-06 18:55
Airport Berlin Brandenburg Airport (EDDB)
Time Latitude Longitude Altitude Speed Heading
2026-05-06 17:51 50.04863 8.58979 348 ft 0 kts 341°
2026-05-06 18:06 50.04853 8.58985 350 ft 2 kts 338°
2026-05-06 18:06 50.04840 8.58993 350 ft 2 kts 340°
2026-05-06 18:06 50.04826 8.59001 349 ft 2 kts 339°
2026-05-06 18:06 50.04811 8.59009 349 ft 2 kts 340°
2026-05-06 18:07 50.04798 8.59018 349 ft 2 kts 339°
2026-05-06 18:07 50.04784 8.59026 349 ft 2 kts 340°
2026-05-06 18:07 50.04778 8.59029 349 ft 0 kts 340°
2026-05-06 18:09 50.04781 8.59016 349 ft 3 kts 282°
2026-05-06 18:10 50.04769 8.58936 349 ft 14 kts 251°
2026-05-06 18:10 50.04702 8.58775 349 ft 24 kts 197°
2026-05-06 18:10 50.04525 8.58634 349 ft 33 kts 234°
2026-05-06 18:10 50.04406 8.58227 349 ft 68 kts 250°
2026-05-06 18:11 50.04163 8.57218 350 ft 137 kts 249°
2026-05-06 18:11 50.03919 8.56219 449 ft 164 kts 252°
2026-05-06 18:11 50.03398 8.54015 1301 ft 175 kts 253°
2026-05-06 18:11 50.03004 8.52313 2221 ft 172 kts 255°
2026-05-06 18:12 50.02586 8.50587 2904 ft 183 kts 247°
2026-05-06 18:12 50.01783 8.49011 3581 ft 198 kts 219°
2026-05-06 18:12 50.00512 8.48235 4186 ft 217 kts 194°
2026-05-06 18:12 49.98979 8.47856 4749 ft 238 kts 191°
2026-05-06 18:13 49.97356 8.47504 5666 ft 243 kts 192°
2026-05-06 18:13 49.95833 8.47055 6674 ft 240 kts 197°
2026-05-06 18:13 49.94327 8.46403 7457 ft 247 kts 200°
2026-05-06 18:13 49.92770 8.45566 8178 ft 256 kts 209°
2026-05-06 18:14 49.91438 8.43940 8980 ft 258 kts 235°
2026-05-06 18:14 49.90719 8.41555 9859 ft 258 kts 261°
2026-05-06 18:14 49.90780 8.38829 10751 ft 260 kts 286°
2026-05-06 18:14 49.91641 8.36489 11509 ft 266 kts 314°
2026-05-06 18:15 49.93083 8.34891 12209 ft 276 kts 334°
2026-05-06 18:15 49.94913 8.33803 12666 ft 295 kts 339°
2026-05-06 18:15 49.96910 8.32693 12792 ft 324 kts 338°
2026-05-06 18:15 49.99040 8.31419 12836 ft 352 kts 337°
2026-05-06 18:16 50.01211 8.30042 13263 ft 366 kts 336°
2026-05-06 18:16 50.03567 8.28865 13601 ft 382 kts 348°
2026-05-06 18:16 50.06322 8.28742 14063 ft 396 kts
2026-05-06 18:16 50.08862 8.29710 14757 ft 400 kts 17°
2026-05-06 18:17 50.11409 8.31059 15443 ft 403 kts 18°
2026-05-06 18:17 50.14071 8.32519 16076 ft 409 kts 18°
2026-05-06 18:17 50.16728 8.33964 16681 ft 414 kts 18°
2026-05-06 18:17 50.19478 8.35434 17303 ft 418 kts 18°
2026-05-06 18:18 50.22095 8.37281 17812 ft 426 kts 33°
2026-05-06 18:18 50.24190 8.40509 18356 ft 431 kts 54°
2026-05-06 18:18 50.25699 8.44453 19001 ft 434 kts 61°
2026-05-06 18:18 50.27120 8.48635 19551 ft 439 kts 62°
2026-05-06 18:19 50.28553 8.52821 20074 ft 444 kts 61°
2026-05-06 18:19 50.30040 8.57033 20612 ft 448 kts 60°
2026-05-06 18:19 50.31556 8.61216 21141 ft 451 kts 60°
2026-05-06 18:19 50.33126 8.65474 21671 ft 455 kts 60°
2026-05-06 18:20 50.34710 8.69727 22164 ft 459 kts 60°
2026-05-06 18:20 50.36310 8.74001 22667 ft 463 kts 60°
2026-05-06 18:20 50.37914 8.78277 23155 ft 466 kts 60°
2026-05-06 18:20 50.39541 8.82612 23622 ft 470 kts 60°
2026-05-06 18:21 50.41178 8.86976 24056 ft 474 kts 60°
2026-05-06 18:21 50.42819 8.91358 24489 ft 478 kts 60°
2026-05-06 18:21 50.44444 8.95701 24916 ft 481 kts 61°
2026-05-06 18:21 50.46121 9.00191 25308 ft 485 kts 61°
2026-05-06 18:22 50.47789 9.04662 25685 ft 488 kts 61°
2026-05-06 18:22 50.49469 9.09176 26157 ft 488 kts 61°
2026-05-06 18:22 50.51154 9.13706 26724 ft 487 kts 61°
2026-05-06 18:22 50.52847 9.18268 27273 ft 485 kts 62°
2026-05-06 18:23 50.54571 9.22918 27780 ft 485 kts 62°
2026-05-06 18:23 50.56225 9.27389 28223 ft 485 kts 62°
2026-05-06 18:23 50.57915 9.31969 28678 ft 485 kts 62°
2026-05-06 18:23 50.59605 9.36558 29120 ft 485 kts 62°
2026-05-06 18:24 50.61286 9.41133 29460 ft 486 kts 62°
2026-05-06 18:24 50.62971 9.45724 29744 ft 488 kts 62°
2026-05-06 18:24 50.64657 9.50327 30034 ft 490 kts 62°
2026-05-06 18:24 50.66353 9.54963 30339 ft 491 kts 63°
2026-05-06 18:25 50.68049 9.59610 30593 ft 493 kts 63°
2026-05-06 18:25 50.69750 9.64280 30748 ft 496 kts 63°
2026-05-06 18:25 50.73154 9.73643 30746 ft 496 kts 64°
2026-05-06 18:26 50.76550 9.83025 30750 ft 496 kts 64°
2026-05-06 18:26 50.79926 9.92386 30742 ft 497 kts 64°
2026-05-06 18:27 50.83264 10.01677 30736 ft 496 kts 64°
2026-05-06 18:27 50.86676 10.11202 30735 ft 497 kts 64°
2026-05-06 18:28 50.90076 10.20733 30734 ft 498 kts 64°
2026-05-06 18:28 50.93476 10.30303 30731 ft 499 kts 64°
2026-05-06 18:29 50.96814 10.39725 30723 ft 500 kts 64°
2026-05-06 18:29 51.00201 10.49325 30720 ft 501 kts 64°
2026-05-06 18:30 51.03542 10.58833 30713 ft 502 kts 64°
2026-05-06 18:30 51.06978 10.68639 30719 ft 502 kts 65°
2026-05-06 18:31 51.10353 10.78319 30725 ft 503 kts 65°
2026-05-06 18:31 51.13720 10.88002 30729 ft 503 kts 65°
2026-05-06 18:32 51.17073 10.97692 30732 ft 505 kts 65°
2026-05-06 18:32 51.20445 11.07476 30726 ft 505 kts 65°
2026-05-06 18:33 51.23797 11.17235 30731 ft 506 kts 65°
2026-05-06 18:33 51.27148 11.27032 30727 ft 507 kts 65°
2026-05-06 18:34 51.30495 11.36854 30729 ft 506 kts 65°
2026-05-06 18:34 51.33831 11.46685 30734 ft 507 kts 65°
2026-05-06 18:35 51.37136 11.56458 30734 ft 508 kts 64°
2026-05-06 18:35 51.40471 11.66355 30501 ft 508 kts 65°
2026-05-06 18:36 51.42118 11.71263 30223 ft 505 kts 65°
2026-05-06 18:36 51.43767 11.76178 29954 ft 503 kts 65°
2026-05-06 18:36 51.45401 11.81065 29679 ft 500 kts 65°
2026-05-06 18:36 51.47021 11.85920 29415 ft 498 kts 65°
2026-05-06 18:37 51.48638 11.90774 29144 ft 498 kts 65°
2026-05-06 18:37 51.49726 11.94045 28965 ft 498 kts 65°
2026-05-06 18:37 51.51882 12.00540 28605 ft 499 kts 64°
2026-05-06 18:37 51.53495 12.05409 28339 ft 499 kts 64°
2026-05-06 18:38 51.55114 12.10308 27853 ft 500 kts 64°
2026-05-06 18:38 51.56726 12.15198 27052 ft 500 kts 64°
2026-05-06 18:38 51.58345 12.20121 26152 ft 500 kts 63°
2026-05-06 18:38 51.59921 12.24922 25206 ft 501 kts 63°
2026-05-06 18:39 51.61481 12.29678 24569 ft 492 kts 63°
2026-05-06 18:39 51.63033 12.34419 24041 ft 487 kts 63°
2026-05-06 18:39 51.64568 12.39107 23477 ft 483 kts 63°
2026-05-06 18:40 51.67606 12.48418 22306 ft 473 kts 63°
2026-05-06 18:40 51.69083 12.52960 21719 ft 468 kts 63°
2026-05-06 18:40 51.70539 12.57447 21126 ft 463 kts 63°
2026-05-06 18:40 51.71992 12.61935 20524 ft 459 kts 63°
2026-05-06 18:41 51.73449 12.66440 19914 ft 454 kts 63°
2026-05-06 18:41 51.74883 12.70886 19290 ft 449 kts 63°
2026-05-06 18:41 51.76324 12.75360 18681 ft 444 kts 63°
2026-05-06 18:41 51.77753 12.79810 18047 ft 439 kts 63°
2026-05-06 18:42 51.79160 12.84194 17436 ft 435 kts 63°
2026-05-06 18:42 51.80556 12.88552 16831 ft 430 kts 63°
2026-05-06 18:42 51.81922 12.92825 16211 ft 426 kts 63°
2026-05-06 18:42 51.83274 12.97063 15618 ft 422 kts 63°
2026-05-06 18:43 51.84614 13.01269 14983 ft 418 kts 63°
2026-05-06 18:43 51.85909 13.05339 14409 ft 414 kts 63°
2026-05-06 18:43 51.87215 13.09449 13807 ft 411 kts 63°
2026-05-06 18:43 51.88507 13.13525 13197 ft 407 kts 63°
2026-05-06 18:44 51.89779 13.17548 12622 ft 403 kts 63°
2026-05-06 18:44 51.91044 13.21553 12022 ft 400 kts 63°
2026-05-06 18:44 51.92312 13.25492 11459 ft 396 kts 59°
2026-05-06 18:44 51.94032 13.28932 10851 ft 390 kts 40°
2026-05-06 18:45 51.96230 13.31182 10275 ft 384 kts 21°
2026-05-06 18:45 51.98610 13.32123 9717 ft 376 kts
2026-05-06 18:45 52.01052 13.31765 9143 ft 366 kts 342°
2026-05-06 18:45 52.02607 13.30756 8734 ft 359 kts 328°
2026-05-06 18:46 52.04970 13.27382 8045 ft 330 kts 309°
2026-05-06 18:46 52.06604 13.24912 7548 ft 317 kts 321°
2026-05-06 18:46 52.08330 13.22976 7056 ft 302 kts 324°
2026-05-06 18:46 52.10044 13.21163 6553 ft 288 kts 325°
2026-05-06 18:47 52.11680 13.19441 6040 ft 276 kts 325°
2026-05-06 18:47 52.13251 13.17769 5543 ft 266 kts 325°
2026-05-06 18:47 52.14751 13.16129 5054 ft 257 kts 325°
2026-05-06 18:47 52.16188 13.14507 4630 ft 250 kts 325°
2026-05-06 18:48 52.17615 13.12960 4238 ft 246 kts 335°
2026-05-06 18:48 52.19236 13.12408 3841 ft 243 kts
2026-05-06 18:48 52.20783 13.13236 3483 ft 241 kts 29°
2026-05-06 18:48 52.22178 13.14658 3112 ft 241 kts 34°
2026-05-06 18:49 52.23555 13.16190 2944 ft 231 kts 35°
2026-05-06 18:49 52.24842 13.17641 2941 ft 218 kts 35°
2026-05-06 18:49 52.26025 13.18980 2947 ft 217 kts 35°
2026-05-06 18:49 52.27176 13.20291 2950 ft 217 kts 35°
2026-05-06 18:50 52.28281 13.21751 2947 ft 217 kts 50°
2026-05-06 18:50 52.28986 13.23606 2943 ft 208 kts 63°
2026-05-06 18:50 52.29512 13.25527 2865 ft 202 kts 65°
2026-05-06 18:50 52.29985 13.27460 2728 ft 194 kts 67°
2026-05-06 18:51 52.30424 13.29339 2469 ft 184 kts 67°
2026-05-06 18:51 52.30831 13.31091 2206 ft 172 kts 66°
2026-05-06 18:51 52.31210 13.32717 1999 ft 159 kts 66°
2026-05-06 18:51 52.31570 13.34254 1790 ft 152 kts 66°
2026-05-06 18:52 52.31905 13.35675 1575 ft 141 kts 66°
2026-05-06 18:52 52.32237 13.37088 1447 ft 142 kts 66°
2026-05-06 18:52 52.32570 13.38474 1348 ft 140 kts 65°
2026-05-06 18:52 52.32898 13.39798 1103 ft 132 kts 66°
2026-05-06 18:53 52.33188 13.41061 896 ft 129 kts 67°
2026-05-06 18:53 52.33477 13.42322 743 ft 128 kts 67°
2026-05-06 18:53 52.33779 13.43592 591 ft 128 kts 66°
2026-05-06 18:53 52.34088 13.44865 448 ft 127 kts 68°
2026-05-06 18:54 52.34369 13.46113 282 ft 126 kts 68°
2026-05-06 18:54 52.34661 13.47353 157 ft 115 kts 67°
2026-05-06 18:54 52.34894 13.48334 147 ft 81 kts 67°
2026-05-06 18:54 52.35075 13.49058 147 ft 68 kts 64°
2026-05-06 18:55 52.35269 13.49416 147 ft 20 kts 37°
2026-05-06 18:55 52.35315 13.49472 147 ft 2 kts 36°
2026-05-06 18:55 52.35319 13.49477 147 ft 1 kts 36°
2026-05-06 18:55 52.35331 13.49492 147 ft 3 kts 36°
2026-05-06 18:56 52.35358 13.49524 147 ft 7 kts 36°
2026-05-06 18:56 52.35408 13.49586 147 ft 11 kts 37°
2026-05-06 18:56 52.35469 13.49738 147 ft 23 kts 68°
2026-05-06 18:56 52.35534 13.50029 147 ft 31 kts 68°
2026-05-06 18:57 52.35609 13.50334 147 ft 29 kts 70°
2026-05-06 18:57 52.35676 13.50625 147 ft 27 kts 67°
2026-05-06 18:57 52.35779 13.50824 147 ft 25 kts 19°
2026-05-06 18:57 52.35869 13.51012 147 ft 23 kts 70°
2026-05-06 18:58 52.35916 13.51229 146 ft 22 kts 68°
2026-05-06 18:58 52.35970 13.51442 146 ft 22 kts 67°
2026-05-06 18:58 52.36015 13.51643 146 ft 21 kts 69°
2026-05-06 18:58 52.36065 13.51832 146 ft 20 kts 37°
2026-05-06 18:59 52.36136 13.51744 146 ft 18 kts 257°
2026-05-06 18:59 52.36105 13.51613 146 ft 3 kts 262°
2026-05-06 18:59 52.36132 13.51576 146 ft 7 kts 347°
2026-05-06 18:59 52.36171 13.51552 146 ft 5 kts 339°
2026-05-06 19:00 52.36183 13.51545 146 ft 0 kts 339°